EST,Max TemperatureF,Mean TemperatureF,Min TemperatureF,Max Dew PointF,MeanDew PointF,Min DewpointF,Max Humidity, Mean Humidity, Min Humidity, Max Sea Level PressureIn, Mean Sea Level PressureIn, Min Sea Level PressureIn, Max VisibilityMiles, Mean VisibilityMiles, Min VisibilityMiles, Max Wind SpeedMPH, Mean Wind SpeedMPH, Max Gust SpeedMPH,PrecipitationIn, CloudCover, Events, WindDirDegrees
2013-12-1,39,32,26,28,23,14,81,69,55,30.39,30.18,30.03,10,10,6,0,0,,0.00,7,,-1
2013-12-2,39,34,28,30,28,25,87,78,70,30.03,29.96,29.91,10,6,0,5,0,,0.00,8,,193
2013-12-3,44,35,24,32,27,21,87,77,57,29.97,29.92,29.87,10,7,0,5,1,,0.00,5,,349
2013-12-4,39,30,21,27,21,16,86,73,49,30.19,30.10,29.97,10,6,0,8,1,,0.00,3,,299
2013-12-5,41,34,26,36,30,21,87,81,70,30.19,30.07,29.90,10,4,0,6,1,,0.00,8,,13
2013-12-6,48,40,33,45,35,27,87,76,53,30.16,30.00,29.86,10,7,1,10,2,,0.15,7,,328
2013-12-7,35,28,21,28,21,12,87,67,44,30.44,30.25,30.09,10,9,2,16,3,21,0.06,5,,340
2013-12-8,28,22,17,16,12,9,80,60,43,30.57,30.51,30.44,10,10,10,7,1,,0.00,2,,181
2013-12-9,32,28,23,28,22,12,87,78,55,30.46,30.12,29.88,10,3,1,6,1,,0.21,8,,334
2013-12-10,32,24,17,28,20,7,87,73,46,29.97,29.87,29.80,10,8,0,9,3,,0.01,3,,226
2013-12-11,30,22,15,16,10,5,80,59,40,30.16,30.09,29.97,10,10,6,16,6,24,0.00,3,,220
2013-12-12,21,13,5,18,1,-6,86,58,30,30.26,30.16,30.01,10,10,2,12,4,20,0.00,1,,292
2013-12-13,26,16,5,14,6,-6,79,66,55,30.38,30.08,29.94,10,8,2,15,4,16,0.00,4,,274
2013-12-14,15,10,5,9,-4,-9,79,57,44,30.58,30.44,30.14,10,8,1,16,5,23,0.00,4,,9
2013-12-15,28,21,14,19,14,7,80,73,64,30.12,29.66,29.49,10,6,0,14,8,25,0.01,7,,6
2013-12-16,24,14,3,14,4,-6,79,54,39,30.16,29.95,29.70,10,10,10,17,6,24,0.00,1,,245
2013-12-17,12,2,-9,7,-3,-18,79,74,65,30.24,30.14,29.98,10,6,0,8,1,,0.13,5,,7
2013-12-18,30,19,8,19,10,3,86,72,55,30.03,29.97,29.92,10,9,3,8,3,,0.00,4,,235
2013-12-19,39,30,21,21,19,16,80,68,48,30.09,30.02,29.94,10,10,6,14,5,18,0.01,3,,203
2013-12-20,37,30,24,30,25,19,87,78,65,30.10,29.99,29.91,10,8,3,5,0,,0.00,5,,215
2013-12-21,50,42,33,37,32,28,93,80,62,29.95,29.90,29.85,10,8,1,6,0,,0.00,6,,193
2013-12-22,55,45,35,52,36,30,94,86,81,29.96,29.83,29.70,9,2,0,8,1,,0.07,6,,30
2013-12-23,37,36,35,34,32,28,93,84,75,30.12,30.02,29.94,10,5,0,9,2,,0.48,7,,10
2013-12-24,33,27,21,27,14,7,75,54,44,30.22,30.13,30.06,10,10,6,14,6,21,0.01,3,,330
2013-12-25,21,16,10,7,0,-4,68,51,39,30.49,30.42,30.23,10,10,10,15,7,23,0.00,1,,342
2013-12-26,26,22,17,19,14,3,86,69,49,30.43,30.24,30.08,10,8,0,7,1,,0.13,6,,197
2013-12-27,33,25,17,19,16,10,86,64,44,30.24,30.20,30.17,10,10,9,10,3,17,0.00,6,,229
2013-12-28,41,26,12,27,18,7,86,72,52,30.18,30.07,29.99,10,9,2,10,3,,0.00,2,,212
2013-12-29,35,28,21,32,25,18,87,81,65,30.02,29.82,29.52,10,6,2,8,1,,0.33,3,,16
2013-12-30,35,24,12,28,17,1,87,64,44,30.16,29.89,29.58,10,10,2,15,5,24,0.03,3,,284
2013-12-31,19,12,6,10,3,-2,73,61,46,30.15,30.09,29.99,10,10,3,13,4,23,0.00,1,,264